Location: Chantarel
(45.1638°N, 1.7873°E)
Time: 06:54:58
(UTC+00:00)

Cosmos 2333 Rocket - Pass Details

Date: 03 March 2021
Orbit: 837 x 864 km, 70.8° (Epoch: 10 April)

Event Time Altitude Azimuth Distance (km) Brightness Sun altitude
Rises 18:46:26 0° 170° (S) 3,385 5.2 -12.0°
Reaches altitude 10° 18:49:12 10° 159° (SSE) 2,458 4.4 -12.5°
Maximum altitude 18:53:51 27° 103° (ESE) 1,577 3.0 -13.3°
Drops below altitude 10° 18:58:32 10° 47° (NE) 2,488 4.3 -14.1°
Sets 19:01:20 0° 36° (NE) 3,433 5.1 -14.6°
